Barcelona-Gracia (Barcelonés)





Hora UTC 16:45
Temperatura 15.7 ºC
Humitat 81.0 %
Pressió 1012.4 hPa
Pluja 0.0 mm
Velocitat vent 3.2 km/h
Direcció vent

Dades diàries 2024-04-16



Hora UTC (hivern +1h; estiu +2h)
Temperatura (ºC) Humitat (%) Pressió (hPa) Velocitat vent (km/h) Precipitació (mm)
Hora UTC Aire Humitat Pressió Vel. Dir. Vel. Max Dir. Intent. màx 5 min.
00:05 16.2 92.0 1016.6 3.2 3.2 0.0
00:15 16.3 92.0 1016.6 3.2 12.9 0.0
00:25 16.2 92.0 1016.3 3.2 12.9 0.0
00:35 16.2 92.0 1016.4 3.2 16.1 0.0
00:45 16.1 92.0 1016.1 8.0 16.1 0.0
00:55 16.1 91.0 1016.3 8.0 16.1 0.0
01:05 16.0 91.0 1016.1 4.8 16.1 0.0
01:15 16.1 92.0 1016.0 3.2 16.1 0.0
01:25 16.0 91.0 1015.8 3.2 16.1 0.0
01:35 15.9 91.0 1015.6 11.3 16.1 0.0
01:45 15.7 91.0 1015.6 8.0 16.1 0.0
01:55 15.6 90.0 1015.6 3.2 16.1 0.0
02:05 15.7 89.0 1015.5 1.6 16.1 0.0
02:15 15.6 88.0 1015.4 6.4 16.1 0.0
02:25 15.6 87.0 1015.4 8.0 16.1 0.0
02:35 15.7 87.0 1015.4 3.2 16.1 0.0
02:45 15.7 87.0 1015.3 1.6 16.1 0.0
02:55 15.6 87.0 1015.3 0.0 16.1 0.0
03:05 15.5 87.0 1015.3 0.0 16.1 0.0
03:15 15.3 81.0 1015.2 4.8 16.1 0.0
03:25 15.2 69.0 1015.0 6.4 16.1 0.0
03:35 14.9 62.0 1015.0 8.0 16.1 0.0
03:45 14.8 62.0 1015.0 8.0 16.1 0.0
03:55 14.7 61.0 1014.9 3.2 19.3 0.0
04:05 14.6 60.0 1014.8 4.8 19.3 0.0
04:15 14.3 60.0 1014.7 3.2 20.9 0.0
04:25 14.3 60.0 1014.7 8.0 20.9 0.0
04:35 14.4 61.0 1014.5 0.0 20.9 0.0
04:45 14.3 60.0 1014.2 4.8 20.9 0.0
04:55 14.2 59.0 1014.4 4.8 20.9 0.0
05:05 14.1 58.0 1014.4 3.2 24.1 0.0
05:15 13.9 59.0 1014.2 8.0 24.1 0.0
05:25 13.9 60.0 1014.2 1.6 24.1 0.0
05:35 13.8 60.0 1014.7 4.8 24.1 0.0
05:45 13.6 59.0 1014.9 6.4 24.1 0.0
05:55 13.6 60.0 1014.9 19.3 24.1 0.0
06:05 13.5 60.0 1014.8 14.5 25.7 0.0
06:15 13.6 61.0 1014.8 6.4 25.7 0.0
06:25 13.8 61.0 1014.8 11.3 25.7 0.0
06:35 14.0 60.0 1014.7 8.0 25.7 0.0
06:45 14.3 60.0 1014.7 4.8 25.7 0.0
06:55 14.9 59.0 1014.8 6.4 25.7 0.0
07:05 14.9 59.0 1014.8 4.8 25.7 0.0
07:15 15.2 58.0 1014.7 8.0 25.7 0.0
07:25 15.6 58.0 1014.6 0.0 25.7 0.0
07:35 15.9 58.0 1014.6 3.2 25.7 0.0
07:45 16.4 57.0 1014.6 0.0 25.7 0.0
07:55 17.3 55.0 1014.7 0.0 25.7 0.0
08:05 17.3 56.0 1014.7 0.0 25.7 0.0
08:15 17.4 55.0 1014.7 8.0 25.7 0.0
08:25 17.2 56.0 1014.8 1.6 25.7 0.0
08:35 17.4 55.0 1014.8 3.2 25.7 0.0
08:45 17.8 55.0 1014.9 6.4 25.7 0.0
08:55 18.3 54.0 1014.8 0.0 25.7 0.0
09:05 18.3 52.0 1014.9 3.2 25.7 0.0
09:15 18.8 53.0 1014.8 6.4 25.7 0.0
09:25 18.1 53.0 1014.8 9.7 25.7 0.0
09:35 18.1 53.0 1014.8 3.2 25.7 0.0
09:45 18.3 53.0 1014.6 3.2 25.7 0.0
09:55 17.7 56.0 1014.5 4.8 25.7 0.0
10:05 17.7 55.0 1014.5 12.9 25.7 0.0
10:15 17.7 57.0 1014.5 4.8 25.7 0.0
10:25 17.6 57.0 1014.3 8.0 25.7 0.0
10:35 17.7 58.0 1014.4 8.0 25.7 0.0
10:45 17.8 57.0 1014.3 8.0 25.7 0.0
10:55 17.6 58.0 1014.3 4.8 25.7 0.0
11:05 17.8 57.0 1014.1 9.7 25.7 0.0
11:15 17.4 59.0 1014.1 3.2 25.7 0.0
11:25 17.4 58.0 1014.0 6.4 25.7 0.0
11:35 17.8 56.0 1013.9 12.9 25.7 0.0
11:45 17.9 55.0 1013.8 11.3 25.7 0.0
11:55 17.9 54.0 1013.7 4.8 25.7 0.0
12:05 17.8 56.0 1013.7 8.0 25.7 0.0
12:15 17.8 55.0 1013.8 8.0 25.7 0.0
12:25 17.3 57.0 1013.5 8.0 25.7 0.0
12:35 17.6 57.0 1013.5 6.4 25.7 0.0
12:45 17.9 56.0 1013.4 4.8 25.7 0.0
12:55 17.7 55.0 1013.4 6.4 25.7 0.0
13:05 17.8 54.0 1013.3 11.3 25.7 0.0
13:15 18.1 56.0 1013.2 11.3 25.7 0.0
13:25 18.1 57.0 1013.0 11.3 25.7 0.0
13:35 17.9 55.0 1013.0 4.8 25.7 0.0
13:45 17.8 58.0 1012.9 8.0 25.7 0.0
13:55 17.8 58.0 1012.7 12.9 29.0 0.0
14:05 17.6 60.0 1012.7 16.1 32.2 0.0
14:15 17.3 59.0 1012.5 11.3 32.2 0.0
14:25 17.2 60.0 1012.5 6.4 32.2 0.0
14:35 17.2 59.0 1012.4 22.5 32.2 0.0
14:45 17.2 60.0 1012.4 11.3 32.2 0.0
14:55 17.3 59.0 1012.4 17.7 32.2 0.0
15:05 17.3 56.0 1012.3 24.1 32.2 0.0
15:15 17.1 58.0 1012.3 6.4 32.2 0.0
15:25 17.5 59.0 1012.3 14.5 32.2 0.0
15:35 17.1 65.0 1012.3 8.0 32.2 0.0
15:45 17.2 67.0 1012.2 12.9 32.2 0.0
15:55 17.1 72.0 1012.2 19.3 32.2 0.0
16:05 17.1 72.0 1012.1 8.0 32.2 0.0
16:15 16.4 75.0 1012.3 4.8 32.2 0.0
16:25 16.1 78.0 1012.3 17.7 32.2 0.0
16:35 15.8 79.0 1012.4 20.9 32.2 0.0
16:45 15.7 81.0 1012.4 3.2 32.2 0.0
Màxima 18.8 92.0 1016.6 24.1 32.2 0.0
Mínima 13.4 52.0 1012.1
Total 0.0